Dewpoint
-5 -2 -1 -2 -4 -7 -3 -5 -2 -1 -1 -0 -2 -1 -2 -5 -4 -5 -6 -6 -3 -2 1 2 2 2 1 1 0 -0 -1 1 2 2 1 2 3 3 3 2 3 4 4 4
-2 0 -2 -3 -3 -3 -3 -2 1 1 -0 0 1 1 -1 -2 -2 -4 -4 -5 -5 -5 -0 2 2 2 1 1 0 0 0 2 2 2 3 3 4 4 4 4 4 4 4 5
-1 -2 -2 -2 -1 0 1 -1 -1 -2 -0 -1 -0 -3 -7 -1 0 0 -0 -1 -2 -4 -3 2 2 2 2 1 1 0 1 2 2 2 2 3 3 4 4 3 4 4 5 4
-1 -2 -1 -0 1 -2 1 1 1 1 -2 -3 -2 0 -6 -4 -0 1 1 0 -0 -1 -0 2 2 2 2 1 1 1 1 1 1 1 2 2 1 1 1 1 1 2 1 0
-0 -0 -0 1 1 -1 2 1 1 1 1 -1 -1 1 -3 -1 -1 -1 0 1 0 0 2 2 2 2 2 1 1 1 1 1 1 0 -0 0 0 0 -1 -1 -2 -3 -3 -3
-1 -1 0 0 1 0 1 -0 -2 -1 -0 -0 -0 0 -1 -2 -1 -1 -0 1 1 2 2 2 2 2 2 1 1 1 -0 -0 -1 -1 -2 -2 -2 -2 -2 -3 -4 -4 -5 -7
-0 0 0 0 1 -0 -0 -1 -1 0 1 1 -0 3 0 -3 -3 -1 -1 -0 1 1 2 2 2 2 1 1 1 2 1 1 -0 -4 -11 -14 -14 -14 -13 -13 -13 -14 -14 -15
-1 -3 0 0 0 1 2 -1 -1 -3 -2 2 1 4 1 -2 1 -1 -0 1 1 1 2 2 2 1 -0 1 2 0 -1 -1 -6 -10 -14 -14 -14 -14 -13 -13 -13 -14 -15 -17
2 3 1 1 1 -0 3 2 -1 1 1 3 -0 -1 -2 -1 -1 1 1 1 1 1 2 2 1 0 -0 1 1 -3 -6 -10 -13 -13 -13 -12 -12 -12 -12 -12 -13 -14 -15 -18
0 4 2 2 1 2 1 0 1 1 1 3 1 0 2 -1 1 0 0 0 0 1 1 1 -0 -0 -0 1 1 -1 -6 -11 -12 -11 -11 -11 -10 -10 -10 -10 -11 -13 -15 -17
-0 1 3 2 3 3 3 3 1 1 1 3 2 -2 -2 -1 -1 -1 -1 -2 -2 -1 -1 -1 -1 -1 -1 0 0 -2 -5 -9 -10 -10 -10 -9 -10 -9 -9 -9 -10 -11 -13 -16
1 0 3 2 1 0 1 2 1 1 1 2 2 1 -5 -3 -0 -1 -1 -2 -3 -2 -2 -2 -2 -1 -1 -1 -0 -3 -4 -6 -8 -9 -9 -9 -9 -9 -9 -8 -8 -9 -11 -14
0 1 2 1 0 1 3 2 0 -1 -0 2 1 -5 -6 -4 -1 0 1 0 -1 -2 -3 -4 -3 -3 -2 -1 -2 -3 -3 -5 -6 -6 -7 -7 -7 -8 -8 -8 -8 -8 -9 -13
-1 0 -1 -1 -3 1 4 2 0 1 2 1 1 -1 -3 -5 -5 -6 -6 -4 -3 -4 -4 -3 -2 -3 -3 -2 -2 -3 -4 -4 -4 -3 -3 -3 -4 -6 -7 -7 -7 -7 -8 -11
-2 -1 -0 -0 -1 -0 1 2 2 2 1 2 -1 -0 -3 -4 -4 -3 -2 -3 -5 -6 -6 -6 -5 -4 -3 -2 -2 -2 -3 -3 -3 -3 -2 -2 -2 -4 -5 -5 -6 -7 -7 -10
-1 -1 -1 -2 -1 -1 1 0 1 2 2 1 1 2 -2 -2 -3 -4 -6 -6 -6 -6 -6 -6 -6 -5 -5 -3 -2 -2 -2 -3 -3 -2 -2 -2 -2 -2 -3 -3 -4 -5 -6 -9
-0 -1 -1 -2 -2 -2 -4 -3 -0 0 0 1 2 -1 -3 -4 -5 -5 -7 -8 -8 -8 -7 -7 -7 -6 -6 -5 -4 -3 -3 -1 -2 -2 -2 -1 -1 -2 -2 -3 -4 -5 -6 -9
-1 -1 -1 -1 -4 -10 -13 -7 -4 -2 -2 -1 -2 -3 -4 -4 -6 -9 -10 -8 -9 -10 -10 -10 -9 -10 -9 -6 -5 -3 -3 -2 -1 -1 -1 -1 -0 -1 -2 -2 -3 -4 -6 -10
-3 -2 -1 -1 -1 -7 -10 -6 -5 -5 -10 -6 -3 -4 -6 -8 -7 -7 -10 -8 -7 -7 -7 -8 -8 -8 -8 -8 -4 -2 -1 -1 -1 -1 -1 -1 -0 0 -2 -2 -3 -5 -6 -12
-2 -3 -2 -0 -0 -10 -17 -10 -6 -7 -13 -13 -6 -8 -8 -7 -5 -7 -8 -8 -8 -7 -7 -7 -7 -6 -7 -6 -2 -2 -1 -0 -0 -1 -1 -1 -0 1 -1 -2 -3 -5 -7 -16
1 -0 1 1 1 -1 -6 -7 -6 -11 -13 -10 -7 -7 -7 -6 -7 -8 -6 -8 -7 -7 -7 -7 -5 -6 -7 -5 -2 -2 -1 -1 -0 0 -1 -0 0 1 -1 -2 -3 -5 -9 -21
-0 1 1 0 2 -3 -5 -6 -7 -12 -7 -7 -7 -6 -5 -5 -5 -5 -6 -7 -7 -7 -7 -7 -5 -5 -7 -6 -4 -2 -3 -3 -1 0 1 0 1 0 -2 -2 -4 -6 -13 -25
-4 -3 -2 -1 -2 -7 -5 -7 -7 -6 -5 -6 -6 -5 -4 -4 -4 -4 -5 -6 -6 -6 -6 -6 -6 -7 -7 -6 -6 -4 -2 -2 -2 -1 0 0 -0 -2 -2 -3 -5 -8 -19 -24
-7 -6 -4 -6 -6 -6 -8 -8 -5 -5 -6 -8 -7 -3 -3 -3 -4 -4 -6 -6 -6 -5 -5 -5 -5 -6 -7 -8 -7 -5 -2 -2 -2 -1 -1 -1 -2 -2 -3 -4 -7 -13 -24 -22
-8 -6 -6 -6 -8 -6 -8 -5 -6 -7 -10 -10 -9 -5 -3 -3 -4 -5 -5 -5 -4 -4 -4 -5 -5 -6 -7 -7 -5 -5 -3 -2 -2 -2 -2 -2 -2 -3 -4 -6 -10 -19 -24 -21
-6 -7 -6 -5 -7 -4 -4 -8 -8 -10 -9 -9 -7 -8 -5 -3 -3 -3 -4 -4 -4 -5 -5 -7 -8 -8 -6 -4 -4 -4 -2 -2 -2 -2 -2 -2 -3 -4 -5 -7 -13 -22 -22 -21
Wind_Speed
7 8 5 2 2 4 8 6 5 2 3 3 3 5 10 16 14 19 21 23 20 17 15 15 14 12 12 15 17 17 15 10 7 7 7 6 6 9 9 8 12 13 11 12
7 6 2 4 6 8 7 7 3 2 3 3 5 12 12 9 11 24 27 28 27 23 21 19 16 13 13 14 16 16 12 7 6 7 7 5 6 8 9 9 9 11 10 9
7 1 2 4 7 11 5 6 3 3 3 2 6 7 5 1 5 8 13 18 21 25 24 20 16 13 12 13 14 12 8 4 3 4 6 6 5 6 7 8 8 7 9 11
7 4 4 6 6 3 4 2 4 3 3 2 4 4 5 3 5 5 9 11 14 18 21 19 16 13 12 12 11 8 4 2 2 2 3 4 4 4 5 7 7 8 9 8
2 3 6 8 2 2 4 3 4 3 3 2 3 2 7 3 5 7 13 12 11 14 17 17 15 13 12 10 8 5 2 0 1 2 2 2 3 4 6 7 7 6 6 8
4 3 4 2 4 5 6 5 5 3 2 2 1 2 5 3 3 3 1 13 14 16 17 16 14 13 12 9 7 5 4 3 2 2 2 3 5 5 4 4 5 7 9 10
5 4 3 3 5 3 5 4 3 4 3 4 1 1 9 4 4 2 2 5 14 16 17 16 15 14 11 10 8 8 8 6 4 2 1 2 2 2 4 5 6 7 8 9
4 4 3 4 2 4 3 3 4 5 2 3 2 5 4 2 2 6 6 6 7 14 17 16 15 14 12 13 11 10 9 7 6 4 3 3 3 4 5 6 7 8 9 12
5 3 2 1 1 1 1 3 2 6 2 1 2 7 7 4 6 7 7 7 8 10 14 14 15 15 14 16 16 13 10 9 8 6 6 6 5 6 6 7 8 10 11 13
5 5 0 1 3 6 1 6 3 3 2 3 4 5 4 5 4 5 8 14 12 11 13 14 14 15 16 19 19 18 15 12 11 11 10 9 8 8 8 8 9 9 10 12
4 4 1 2 3 5 2 1 4 3 2 2 2 5 5 5 3 3 6 6 7 8 11 13 14 15 18 21 24 22 19 16 15 15 13 12 11 11 10 10 10 10 11 13
1 4 3 2 1 2 2 4 4 3 3 1 1 6 2 5 5 4 8 8 9 10 11 12 13 16 21 24 26 25 22 20 18 16 16 14 14 14 13 12 11 12 13 14
4 1 3 5 3 2 3 4 3 4 2 5 4 5 1 5 5 8 13 15 16 16 15 16 19 21 23 25 26 27 25 23 20 19 18 17 17 16 14 14 13 13 14 16
2 2 4 5 3 4 4 5 5 5 3 3 6 7 8 7 8 17 21 27 27 25 25 27 27 27 26 27 28 29 28 26 24 23 22 20 19 17 16 16 15 15 16 17
3 1 1 4 5 2 3 4 8 9 6 7 4 7 8 8 9 23 29 28 27 29 27 25 23 26 29 30 30 32 32 30 28 27 26 23 19 20 18 18 17 17 18 19
2 2 2 3 2 4 5 8 9 11 8 12 13 23 13 26 11 17 28 30 29 27 25 22 22 22 25 29 33 34 36 35 33 32 29 25 23 22 21 19 18 19 19 20
2 3 2 4 3 5 6 7 12 5 5 9 9 11 8 8 13 21 28 26 27 22 20 19 18 20 23 25 25 31 34 37 38 35 32 28 26 26 24 21 20 20 20 20
4 3 2 3 4 2 4 2 5 9 5 11 8 10 12 16 24 23 21 17 25 19 16 14 15 18 22 23 24 24 25 31 36 38 35 31 29 28 26 24 22 22 21 20
3 3 2 1 2 7 1 1 4 3 3 4 6 9 16 18 18 14 13 18 27 24 24 20 19 20 24 25 23 23 23 23 28 34 36 33 31 29 28 25 22 21 21 20
4 4 4 2 1 2 4 2 4 3 1 1 5 7 12 13 7 5 23 32 26 25 22 22 22 23 25 24 22 21 20 22 25 28 32 32 31 30 28 24 22 22 21 20
2 1 4 3 3 7 6 4 3 0 3 5 10 15 16 5 14 29 29 26 26 25 25 24 23 25 25 21 20 18 19 22 23 25 27 29 29 29 27 24 23 21 20 21
6 7 4 4 2 5 6 4 1 1 10 19 22 20 30 32 32 33 34 29 27 27 26 22 23 24 21 21 22 21 21 20 21 22 24 26 27 27 25 23 21 21 20 20
3 5 4 8 5 2 6 3 5 10 20 18 21 29 26 26 29 30 30 24 24 23 23 22 22 23 22 22 23 24 21 20 19 19 20 21 23 23 23 22 21 21 20 20
4 5 2 1 2 5 15 4 9 21 19 22 24 24 27 29 29 29 27 24 21 24 26 25 25 25 26 23 24 23 20 18 17 15 15 17 20 21 21 21 20 20 19 19
2 6 3 4 5 8 5 13 26 21 23 25 25 22 22 21 22 21 22 22 25 26 25 26 26 26 27 24 22 20 17 16 14 13 14 17 19 20 20 20 20 20 18 19
7 4 4 3 2 2 18 22 17 23 27 25 25 27 22 20 22 22 24 24 25 26 27 28 26 23 21 20 18 16 15 15 14 16 18 19 20 21 21 20 20 20 19 19
Wind_Direction
34 74 82 92 47 115 114 102 106 21 7 349 268 277 267 251 227 241 239 234 234 239 243 246 255 273 296 310 324 325 330 327 336 341 343 340 3 20 16 18 23 20 21 15
48 67 338 104 84 87 78 101 61 16 17 13 348 289 260 240 235 238 246 248 247 243 238 239 246 263 286 303 318 323 326 330 350 359 16 29 26 21 13 24 31 23 14 12
94 126 353 93 60 78 38 101 127 145 357 49 325 289 294 264 246 249 246 249 249 242 234 233 240 259 279 299 310 316 319 327 349 29 46 44 38 39 36 38 33 8 354 351
74 352 85 69 75 84 80 27 103 81 83 228 359 275 291 302 278 244 241 237 235 227 219 225 237 256 274 293 303 305 296 319 14 47 58 66 59 45 36 24 32 35 33 33
276 42 60 59 22 52 147 99 86 87 91 60 18 71 273 348 288 248 227 223 216 208 212 224 238 253 272 285 284 279 263 126 108 81 61 57 49 49 35 28 23 14 4 5
89 55 53 95 39 72 138 81 53 61 68 26 340 112 275 223 228 309 270 218 215 212 218 227 240 255 272 259 253 233 206 192 157 115 103 64 48 41 26 10 359 1 2 2
8 359 345 81 76 34 75 65 9 9 15 224 321 271 253 262 244 243 342 230 227 225 227 235 246 261 261 235 225 215 213 211 198 178 84 32 358 328 323 332 342 344 339 338
119 338 6 347 72 153 68 126 146 185 201 283 22 235 250 229 352 257 258 264 255 229 232 240 250 259 245 221 215 206 205 211 225 253 257 253 278 307 309 320 327 327 330 341
126 4 298 247 99 88 180 63 169 105 52 354 265 280 295 276 261 258 256 261 247 231 233 245 251 246 232 216 211 214 230 233 233 234 244 258 274 279 286 301 310 321 335 338
186 98 304 118 100 31 96 151 80 16 100 283 284 281 251 325 298 239 253 252 255 253 250 252 247 239 225 216 214 222 229 229 232 236 243 252 261 271 284 297 307 318 320 328
141 100 178 89 196 176 102 112 56 114 107 161 315 273 211 234 293 286 284 282 279 262 256 252 245 236 224 219 220 225 230 234 237 240 247 254 261 269 277 287 299 311 319 324
102 118 141 186 338 164 163 172 153 126 205 110 115 273 222 249 268 271 284 296 293 277 263 259 252 242 231 229 227 230 232 236 239 244 249 256 263 269 275 286 298 308 313 316
186 58 83 355 2 8 209 197 138 104 91 198 153 260 34 288 283 278 282 288 284 280 276 273 260 252 245 239 236 236 237 240 242 246 252 257 262 267 273 282 293 301 306 309
92 117 164 180 191 134 193 183 178 145 145 186 237 290 279 289 294 302 302 300 299 290 287 280 269 261 254 249 244 242 241 241 242 245 250 253 257 262 266 275 283 293 299 304
85 183 66 266 248 251 229 181 183 203 191 198 235 231 275 275 283 293 302 304 302 294 293 294 278 267 261 257 253 247 245 244 244 246 250 255 258 260 267 274 282 290 297 302
8 170 131 280 53 192 252 222 213 220 236 261 274 285 280 281 305 305 308 314 307 299 295 297 295 285 275 269 264 259 252 248 245 246 251 255 256 260 265 268 274 281 288 295
86 121 62 277 358 310 299 228 194 186 205 213 226 243 301 312 313 311 315 322 324 316 302 301 302 300 296 288 283 268 263 254 249 247 250 253 254 256 262 266 271 278 284 291
132 101 72 269 350 16 248 161 180 201 227 216 269 277 289 286 305 310 315 331 336 326 323 319 323 322 316 305 285 278 271 257 250 248 248 249 251 253 255 259 266 272 279 288
75 108 78 101 247 291 9 165 141 170 341 207 227 271 291 317 308 295 324 327 325 318 314 309 311 314 314 311 297 278 271 260 251 247 246 248 251 252 252 258 264 269 278 286
62 69 117 157 278 244 222 222 196 174 285 69 183 272 281 323 322 292 326 323 322 312 308 304 298 304 311 307 303 282 273 263 257 255 250 248 250 251 251 256 261 267 276 283
124 77 185 199 266 285 249 227 143 23 228 327 318 325 325 267 277 299 316 319 322 319 311 304 300 304 310 304 302 298 282 272 269 261 252 246 246 246 244 249 257 265 274 280
172 154 192 161 208 284 191 112 241 260 334 327 315 310 314 307 307 304 307 310 318 322 320 312 303 305 306 303 299 296 291 288 275 264 255 248 244 238 239 249 257 265 273 278
240 193 179 190 212 272 175 280 302 341 320 318 309 314 315 307 311 315 313 310 316 322 323 320 314 310 309 309 303 298 296 291 282 268 255 243 232 232 240 250 257 264 271 277
236 178 221 11 172 224 276 216 340 338 329 325 320 319 322 313 309 318 320 320 320 320 318 314 311 309 307 309 298 294 291 288 279 264 246 232 232 239 247 252 259 267 274 278
224 147 176 266 298 329 147 331 331 331 330 335 333 329 330 329 323 320 318 320 319 318 317 315 314 312 311 309 301 293 285 280 272 257 242 239 241 247 251 257 262 268 273 276
183 186 159 236 254 303 298 327 338 336 339 339 338 333 333 329 321 320 318 322 324 323 321 318 317 316 317 314 309 295 278 275 269 259 252 251 251 251 254 258 263 269 274 277
Height
1502 1509 1521 1521 1518 1521 1525 1531 1537 1540 1540 1540 1538 1537 1531 1529 1530 1530 1530 1531 1533 1535 1536 1537 1537 1537 1537 1536 1534 1531 1529 1527 1526 1525 1523 1521 1519 1517 1516 1514 1512 1511 1510 1509
1510 1522 1523 1522 1520 1521 1525 1532 1541 1541 1540 1541 1541 1533 1525 1524 1522 1521 1524 1525 1527 1530 1532 1533 1534 1534 1535 1533 1531 1529 1527 1526 1525 1523 1521 1520 1518 1517 1515 1514 1513 1512 1510 1509
1517 1524 1522 1521 1525 1524 1537 1536 1540 1544 1543 1545 1545 1529 1521 1518 1518 1518 1518 1520 1522 1524 1527 1529 1531 1532 1531 1531 1529 1528 1526 1525 1524 1522 1521 1519 1518 1517 1516 1514 1513 1511 1510 1508
1523 1525 1524 1525 1528 1530 1536 1538 1540 1543 1546 1548 1551 1539 1522 1518 1517 1516 1515 1516 1517 1519 1523 1526 1528 1529 1528 1528 1527 1526 1525 1524 1523 1521 1520 1520 1518 1517 1516 1514 1513 1511 1509 1507
1532 1528 1529 1530 1532 1531 1540 1540 1542 1547 1550 1553 1551 1553 1519 1522 1514 1512 1512 1513 1515 1518 1520 1523 1525 1526 1525 1525 1525 1524 1524 1523 1522 1520 1520 1519 1517 1517 1515 1514 1512 1510 1509 1507
1529 1529 1531 1533 1534 1533 1538 1542 1549 1553 1554 1555 1557 1554 1524 1518 1513 1510 1509 1511 1514 1516 1519 1521 1523 1523 1523 1523 1523 1523 1522 1521 1521 1520 1519 1518 1517 1516 1514 1513 1512 1510 1508 1507
1533 1536 1534 1533 1536 1538 1540 1548 1566 1555 1563 1550 1560 1557 1518 1512 1512 1511 1511 1511 1512 1514 1517 1519 1520 1520 1520 1521 1521 1521 1520 1520 1520 1519 1519 1517 1516 1515 1514 1513 1511 1509 1507 1505
1549 1557 1537 1535 1537 1539 1545 1546 1559 1550 1555 1555 1560 1546 1513 1511 1509 1509 1510 1510 1511 1512 1515 1516 1516 1516 1516 1517 1518 1518 1519 1519 1518 1518 1517 1515 1515 1514 1513 1512 1510 1507 1505 1504
1543 1548 1537 1537 1536 1539 1544 1549 1551 1564 1572 1563 1551 1534 1513 1508 1509 1509 1508 1509 1510 1510 1511 1511 1512 1512 1513 1514 1515 1516 1516 1516 1515 1515 1514 1513 1513 1512 1511 1509 1507 1506 1505 1503
1531 1542 1537 1537 1537 1539 1539 1546 1551 1560 1558 1547 1544 1544 1525 1512 1508 1507 1507 1506 1507 1507 1508 1508 1508 1509 1509 1510 1511 1511 1511 1510 1510 1510 1510 1510 1510 1509 1508 1507 1506 1505 1503 1501
1525 1531 1540 1537 1539 1541 1544 1546 1552 1554 1558 1551 1551 1522 1515 1512 1508 1507 1507 1505 1505 1505 1504 1504 1504 1504 1504 1504 1505 1505 1506 1507 1506 1506 1506 1507 1506 1506 1506 1505 1504 1502 1501 1499
1524 1534 1546 1538 1538 1538 1539 1542 1546 1547 1556 1562 1560 1531 1509 1509 1508 1507 1505 1504 1504 1503 1501 1500 1500 1499 1498 1499 1499 1500 1501 1501 1502 1503 1503 1503 1503 1503 1503 1502 1501 1500 1498 1497
1523 1534 1549 1543 1542 1540 1540 1541 1543 1548 1552 1556 1552 1520 1509 1508 1506 1505 1504 1503 1502 1500 1499 1497 1495 1494 1493 1494 1494 1495 1496 1497 1498 1499 1499 1500 1500 1499 1499 1499 1498 1497 1495 1493
1523 1532 1530 1533 1526 1532 1537 1537 1540 1539 1552 1547 1539 1524 1509 1505 1507 1503 1502 1500 1497 1495 1494 1492 1491 1489 1488 1489 1489 1490 1490 1491 1493 1493 1493 1493 1494 1494 1494 1493 1493 1492 1491 1490
1525 1530 1537 1532 1531 1530 1529 1530 1537 1536 1532 1532 1522 1525 1506 1507 1505 1500 1497 1494 1492 1489 1487 1484 1482 1482 1483 1483 1483 1484 1484 1486 1487 1488 1488 1489 1490 1489 1489 1490 1490 1489 1488 1487
1528 1533 1535 1542 1530 1534 1533 1530 1530 1530 1528 1529 1524 1514 1505 1501 1501 1499 1495 1490 1485 1482 1480 1480 1478 1477 1476 1476 1475 1476 1476 1478 1480 1480 1481 1484 1484 1484 1484 1484 1483 1483 1482 1481
1530 1534 1538 1533 1534 1531 1526 1519 1520 1520 1519 1516 1523 1504 1502 1500 1499 1495 1490 1486 1481 1476 1475 1474 1473 1472 1470 1469 1468 1466 1467 1469 1471 1473 1475 1476 1477 1477 1478 1479 1479 1478 1478 1476
1530 1533 1540 1545 1533 1530 1504 1508 1509 1510 1509 1510 1507 1503 1502 1501 1496 1492 1488 1483 1480 1476 1473 1471 1470 1468 1465 1462 1459 1458 1458 1458 1461 1463 1465 1467 1468 1469 1470 1471 1472 1472 1472 1471
1527 1532 1543 1548 1546 1520 1502 1505 1508 1507 1503 1503 1506 1502 1499 1496 1491 1487 1485 1482 1479 1475 1472 1469 1467 1464 1461 1458 1454 1451 1450 1450 1451 1453 1456 1459 1461 1463 1464 1465 1466 1467 1466 1465
1529 1530 1537 1545 1533 1507 1501 1501 1502 1503 1506 1501 1501 1500 1497 1494 1492 1482 1480 1477 1473 1470 1467 1464 1462 1459 1455 1452 1448 1445 1445 1444 1445 1446 1448 1452 1455 1457 1458 1460 1461 1460 1459 1459
1533 1536 1537 1539 1538 1519 1501 1500 1502 1502 1505 1498 1497 1495 1493 1492 1487 1478 1475 1471 1469 1465 1462 1459 1456 1453 1450 1447 1444 1441 1439 1438 1439 1439 1441 1443 1446 1448 1451 1452 1453 1453 1453 1452
1526 1532 1534 1534 1535 1522 1496 1499 1500 1501 1497 1495 1493 1490 1486 1482 1477 1473 1469 1466 1463 1459 1455 1453 1450 1447 1446 1443 1440 1437 1436 1435 1433 1433 1434 1436 1439 1441 1444 1446 1447 1447 1447 1446
1518 1509 1514 1515 1507 1496 1496 1496 1498 1498 1496 1492 1489 1485 1481 1475 1471 1467 1462 1460 1457 1454 1451 1448 1445 1441 1440 1438 1435 1433 1432 1430 1429 1428 1428 1429 1432 1436 1438 1440 1440 1440 1440 1440
1504 1502 1506 1504 1500 1496 1493 1494 1495 1493 1490 1487 1484 1479 1474 1469 1465 1461 1457 1455 1452 1450 1446 1442 1438 1435 1432 1431 1428 1426 1426 1425 1424 1423 1424 1426 1429 1431 1433 1434 1435 1435 1436 1435
1500 1501 1502 1502 1494 1491 1492 1493 1491 1487 1485 1480 1475 1472 1468 1465 1460 1457 1453 1451 1449 1445 1442 1438 1434 1431 1427 1424 1422 1420 1420 1420 1420 1421 1421 1423 1425 1426 1428 1428 1429 1428 1428 1427
1494 1496 1500 1501 1497 1497 1493 1491 1488 1485 1480 1477 1472 1464 1464 1462 1457 1453 1450 1447 1444 1440 1437 1433 1429 1426 1423 1420 1417 1416 1416 1417 1417 1417 1418 1418 1419 1420 1421 1421 1422 1422 1422 1420